User: anonymous   Login
Location: Estes Par
(40.3770°N, 105.5210°W)
Time: 22:34:18
(UTC-06:00)
Language:

Max Valier Satellite - Orbit

View from above orbital plane
View from above orbital plane
View from above satellite
View from above satellite

Ground track
Ground track

The orbit data is extracted from the following two-line orbital elements,

1 42778U 17036P   19077.41480994  .00001044  00000-0  48926-4 0  9990
2 42778  97.3663 137.0664 0012525 180.5772 179.5452 15.21821001 96207
Epoch (UTC): 18 March 2019 09:57:19
Eccentricity: 0.0012525
inclination: 97.3663°
perigee height: 492 km
apogee height: 509 km
right ascension of ascending node: 137.0664°
argument of perigee: 180.5772°
revolutions per day: 15.21821001
mean anomaly at epoch: 179.5452°
orbit number at epoch: 9620

The dashed part of the orbit path shows where the satellite is in the earth's shadow,  

DLR